DMSP 5D-2 F11 DEB, 29069

Orbit data source: Space-Track

DMSP 5D-2 F11 DEB, 29069 is space debris in SSO originally from a launch on Thu, 28 Nov 1991 UTC launched from the Air Force Western Test Range (AFWTR). Debris objects in space refer to the collection of defunct objects orbiting the Earth. Examples of debris include non-operational satellites, rocket bodies, and fragments generated from explosions, collisions, or faulty payload assembly.

Loading next visibility...
Identifier
29069, 1991-082BQ
Orbit
SSO
Country
Flag of USUS
Related business
Manufacturer
Unknown
Mission
Spacecraft
Bus & Motor
Unknown
Mass
Unknown
Launch date (UTC)
1991-11-28 (35 years ago)
Launch vehicle
Unknown
Launch site
Air Force Western Test Range (AFWTR)
Object type
Payload
Rocket body
Debris
Shape & HBR
Unknown shape, 0.1 m
Radar Cross Section
Medium (>0.1 m² and <1 m²)

Expand to show TLE details & history
Last TLE update: 23 hours ago

TLE from 23 hours ago
0 DMSP 5D-2 F11 DEB
1 29069U 91082BQ  26208.19371860  .00005348  00000-0  15452-2 0  9998
2 29069  98.9118 289.5678 0060154 253.0755 134.5676 14.43965027122550
Epoch: 2026-07-27T04:38Z
TLE epoch observation values (Epoch: 2026-07-27T04:38:57.287Z)
Latitude
27.80507°
Longitude
-89.76977°
Altitude
779.062 km
Speed
7.451 km/s
True Right ascension
18h 59m 23s
True Declination
27° 39' 50"
Sunlit
Object was in full shadow at epoch
Visualization orbit readout
Latitude
Unknown
Longitude
Unknown
Altitude
Unknown
Speed
Unknown
Apparent Right ascension
Unknown
Apparent Declination
Unknown
Sunlit
N/A
Visualization observer readout
Local Sidereal Time
17:13:27
Azimuth
Unknown
Elevation
Unknown
Doppler factor
Unknown
Orbital elements
Apogee altitude
785.398 km
Perigee altitude
699.731 km
Semi-major axis
7,120.701 km
Eccentricity
0.00602
Inclination
98.9118°
RAAN
289.5678°
Arg. of periapsis
253.0755°
True anomaly
135.0561°
Mean anomaly
134.5676°
Eccentric anomaly
134.81211°
Mean motion
3.61209 °/min
Orbital period
99.67 mins
BSTAR
0.0015452
Loading maneuver chart data...
Computing Atmospheric mass density...

Documentation

Showing up to 5 results
|